Location: Capelle
(50.3413°N, 1.9974°E)
Time: 00:11:52
(UTC+00:00)

SPOT 1/Viking Rocket - Pass Details

Date: 12 January 2026
Orbit: 772 x 789 km, 98.2° (Epoch: 18 February)

Event Time Altitude Azimuth Distance (km) Brightness Sun altitude
Rises 16:58:22 0° 138° (SE) 3,262 6.6 -7.1°
Reaches altitude 10° 17:00:49 10° 131° (SE) 2,335 5.8 -7.5°
Maximum altitude 17:05:31 37° 65° (ENE) 1,197 4.0 -8.2°
Drops below altitude 10° 17:10:14 10° 359° (N) 2,340 5.8 -8.9°
Sets 17:12:41 0° 352° (N) 3,269 6.6 -9.2°
